Regional Weather Roundup
Issued by NWS Wakefield, VA

Home | Current Version | Previous Version | Graphics & Text | Print | Product List | Glossary On
Versions: 1 2 3 4 5 6 7 8 9 10 11 12 13 14 15 16 17 18 19 20 21 22 23 24 25 26 27
000
ASUS41 KAKQ 280013
RWRAKQ

REGIONAL WEATHER ROUNDUP
NATIONAL WEATHER SERVICE WAKEFIELD VA
800 PM EDT SAT AUG 27 2016

Note: "fair" indicates few or no clouds below 12,000 feet with no
significant weather and/or obstructions to visibility. * = Denotes
station may not report precipitation (e.g., rain,snow,etc.),
thunder or fog.

VAZ042-051-052>054-056-280100-
NORTHERN VIRGINIA

CITY           SKY/WX    TMP DP  RH WIND       PRES   REMARKS
WASH NATIONAL  PTCLDY    85  66  53 E8        30.15R
DULLES         PTCLDY    83  62  49 SE3       30.15R
FORT BELVOIR   CLEAR     78  68  71 CALM      30.15R
QUANTICO       CLEAR     84  69  60 E6        30.15
FREDERICKSBRG*   N/A     79  70  73 CALM      30.13R
STAFFORD*      CLEAR     75  69  82 CALM      30.18R
WARRENTON      CLEAR     79  64  60 CALM      30.15R
CULPEPER*      CLEAR     76  71  83 CALM      30.16R
MANASSAS*      CLEAR     81  70  69 CALM      30.15R
LEESBURG*      CLEAR     86  68  54 E3        30.16R
WINCHESTER     CLEAR     79  66  65 CALM      30.17R
FRONT ROYAL*   FAIR      79  70  73 CALM      30.16R
LURAY*         FAIR      79  70  73 CALM      30.17R
$$

VAZ048-049-060>072-079>083-280100-
CENTRAL AND SOUTH CENTRAL VIRGINIA

CITY           SKY/WX    TMP DP  RH WIND       PRES   REMARKS
RICHMOND       PTCLDY    82  67  60 NE7       30.13R
CHESTERFIELD*  FAIR      84  57  39 NE5       30.15R
PETERSBURG*    CLEAR     83  67  58 E6        30.13R
HANOVER        CLEAR     76  67  73 CALM      30.16R
TAPPAHANNOCK*  CLEAR     75  67  74 CALM      30.14R
QUINTON*       FAIR      82  68  62 CALM      30.12R
CHARLOTTSVILLE CLEAR     84  69  60 CALM      30.16R
GORDONSVILLE*  NOT AVBL
ORANGE*          N/A     77  73  88 CALM      30.17R
LOUISA*        CLEAR     77  73  88 CALM      30.15R
BUMPASS*       FAIR      75  70  84 CALM      30.15R
FARMVILLE*     CLEAR     81  69  65 N6        30.12R
CREWE*         FAIR      79  68  69 NE3       30.12R
FORT PICKETT*  NOT AVBL
CHASE CITY*    FAIR      84  65  51 CALM      30.12R
CLARKSVILLE*   FAIR      86  70  58 E5        30.10R
SOUTH HILL*    CLEAR     80  68  66 CALM      30.17R
LAWRENCEVILLE* FAIR      83  68  60 NE3       30.12R
EMPORIA*       CLEAR     81  68  65 NE3       30.13R
$$

VAZ088>098-280100-
SOUTHEAST VIRGINIA

CITY           SKY/WX    TMP DP  RH WIND       PRES   REMARKS
NORFOLK        CLEAR     78  75  90 E10       30.11R
VIRGINIA BEACH PTCLDY    83  73  72 NE3       30.10S
NORFOLK NAVAL  PTCLDY    79  74  84 E8        30.13R
WEST POINT*    CLEAR     79  66  64 CALM      30.14R
SALUDA*        FAIR      80  68  66 NE3       30.12R
NEWPORT NEWS   PTCLDY    78  70  76 E7        30.12R
LANGLEY AFB    CLEAR     80  73  78 E12       30.12R
FORT EUSTIS    CLEAR     84  69  62 VRB5      30.09R
WILLIAMSBURG*  CLEAR     81  70  69 CALM      30.13R
HR EXEC AP*    FAIR      79  66  65 NE5       30.13R
FRANKLIN*      CLEAR     80  66  63 NE6       30.11R
US460-WAKEFLD  CLEAR     78  66  66 CALM      30.12R
$$

VAZ020-022-025-037-045-280100-
WEST CENTRAL AND SOUTHWEST VIRGINIA

CITY           SKY/WX    TMP DP  RH WIND       PRES   REMARKS
STAUNTON*      CLEAR     80  69  70 CALM      30.20R
WAYNESBORO*    FAIR      80  67  64 SE3       30.20R
HOT SPRINGS VA PTCLDY    75  68  79 E3        30.32R
LYNCHBURG      CLEAR     82  70  66 NE8       30.17R
DANVILLE       CLOUDY    78  76  93 S3        30.12R
SOUTH BOSTON*  FAIR      85  69  58 CALM      30.11R
MARTINSVILLE   CLOUDY    73  72  96 CALM      30.17S FOG
ROANOKE        CLOUDY    83  72  69 SE5       30.18R
BLACKSBURG     CLOUDY    79  73  82 CALM      30.25R
DUBLIN*        MOCLDY    73  69  86 W12G17    30.24R
MARION*        CLOUDY    79  71  74 CALM      30.26R
HILLSVILLE*    CLOUDY    72  71  98 SE3       30.25R
RICHLANDS*     FAIR      79  68  67 CALM      30.23S
WISE*          CLOUDY    82  59  44 CALM      30.24R
ABINGDON*      CLOUDY    81  73  75 CALM      30.19R
$$

MDZ021>025-VAZ099-100-280100-
SOUTHERN MARYLAND AND THE DELMARVA PENINSULA

CITY           SKY/WX    TMP DP  RH WIND       PRES   REMARKS
PATUXENT RIVER CLEAR     81  70  69 NE8       30.14R
BAY BRIDGE APT CLEAR     81  70  69 NE5       30.15R
LEONARDTOWN    CLEAR     79  68  69 CALM      30.16R
DOVER          CLEAR     77  75  96 E6        30.15R
GEORGETOWN     NOT AVBL
EASTON         CLEAR     82  68  61 CALM      30.19R
CAMBRIDGE      CLEAR     77  63  61 CALM      30.15R
SALISBURY      CLEAR     76  69  79 NE5       30.15R
OCEAN CITY     CLEAR     77  72  84 NE7       30.15R
WALLOPS ISLAND CLEAR     79  66  64 NE14      30.15R
ACCOMACK*      CLEAR     76  71  83 E7        30.13R
$$

NCZ012>017-030>032-280100-
NORTH CENTRAL AND EASTERN NORTH CAROLINA

CITY           SKY/WX    TMP DP  RH WIND       PRES   REMARKS
ROANOKE RAPIDS FAIR      81  68  65 NE5       30.11R
RALEIGH        MOCLDY    77  74  90 N3        30.10R
ELIZABETH CITY CLEAR     81  74  79 NE12      30.10R
AHOSKIE*       CLEAR     82  71  70 N3        30.11R
EDENTON*       CLEAR     82  71  69 NE5       30.10R
CURRITUCK*       N/A     81  75  83 NE7       30.11R
KILL DEVIL HLS PTCLDY    80  80 100 NE6       30.09R
MANTEO         CLOUDY    80  79  96 E12       30.09S
CAPE HATTERAS  CLEAR     81  77  88 NE5       30.07R
TARBORO*       FAIR      80  74  84 CALM      30.10R
GOLDSBORO      PTCLDY    84  78  81 E10       30.06R HX  95
WASHINGTON     CLEAR     81  71  71 E3        30.08R
GREENVILLE     CLEAR     86  72  62 E3        30.09R
NEW BERN       PTCLDY    83  74  74 E6        30.08R
WILMINGTON     CLEAR     82  74  76 SE5       30.06R
$$

VAZ048-280100-
ELSEWHERE

CITY           SKY/WX    TMP DP  RH WIND       PRES   REMARKS
HARRISBURG PA  MOCLDY    81  72  74 CALM      30.16R
BALTIMORE      PTCLDY    81  66  60 SE3       30.15R
ANNAPOLIS      CLEAR     84  72  67 N3        30.15R
ANDREWS AFB    CLEAR     80  65  61 E3        30.15R
PHILADELPHIA   CLOUDY    82  61  48 E9        30.18R
HENDERSON NC   MOCLDY    81  69  67 E5        30.12R
GREENSBORO     CLOUDY    74  72  93 CALM      30.14R
ROCKY MOUNT    CLEAR     84  70  62 NE3       30.09R
$$

VAZ100-280100-
MARINE

STATION/POSITION TIME  TEMP    WIND        PRES    WAVE   SWELL
                       AIR SEA DIR/SP/G            HT/PER HT/PER
                 (UTC) (F)     (DEG/KT/KT) (MB)    (FT/S) (FT/S)
BRANDYWINE LGT   2300   77      90/  8/  9   N/A
CAPE MAY NJ      2300   78 75   70/  8/ 13 1020.7R
LEWES DE         2300   76 78   90/  9/ 12 1020.9R
OCEAN-CITY-INLET 2300   78 74   70/  6/  9 1021.0S
WACHAPREAGUE VA  2300   78 85   60/ 13/ 15 1019.9F
THOMAS POINT MD  0000   83 84   10/  7/  7 1022.4R
GOOSES REEF MD   2300   85 84   10/  8/  8 1020.7F   1
COVE POINT MD    2300   84      20/  8/ 11 1020.6R
SOLOMONS ISLAND  2300   85 85   10/  6/  7   N/A
PINEY POINT MD   2300          100/  4/  5   N/A
POTOMAC MD       2300   86 84   30/  8/ 10 1018.7F   0
CAMBRIDGE MD     2300   85 84   70/  7/  9 1019.5R
LEWISETTA VA     2300   87 86   50/  5/  6 1019.5F
RAPPAHANNOCK LGT 2300           70/ 11/ 13 1020.3F
STINGRAY PT      2300   86 85  320/ 10/ 10 1020.0F   1/ 2
YORK RVR RNG VA  2300   83     130/  7/ 11 1019.1S
YORKTOWN VA      2300   84 83  100/ 10/ 11 1019.1F
JAMESTOWN VA     2300   86 86  100/  6/ 10   N/A     0
DOMINION TERM VA 2300   82      80/ 10/ 13 1019.5S
KIPTOPEKE VA     2300      81   80/  9/ 12   N/A
CHES BAY BRIDGE  2300   78 77   40/ 13/ 16 1019.3R
CAPE HENRY VA    2300   79      50/ 13/ 15   N/A
WILLOUBY STN VA  2300   80      70/  9/ 11   N/A
CAPE HENRY BUOY  2312      80                N/A     3/ 4
1ST LANDING BUOY 2300   79 79   80/ 12/ 14 1019.0F   2/ 3
CAPE CHARLES BUO 2326      80                N/A     3/10
OFFSHORE WE BUOY 2321      80                N/A     3/ 9
64NM E OF VA BCH 2350   80 81   40/ 14/ 17 1018.9R   3/ 9   2/ 9
DUCK PIER NC     2300   80 80   40/ 13/ 15 1018.1F
44100 DUCK FRF   2305      80                N/A     3/10
44056 DUCK FRF   2311      79                N/A     3/ 9
OREGON INLET NC  2300   81 82   40/  9/ 12 1018.3F
HATTERAS NC      2300   83 84   70/  7/ 10 1017.8F
DIAMOND SHLS NC  2350   83 85   40/  8/ 10 1018.0R   3/ 9   3/ 9
CAPE LOOKOUT NC  0000   82      80/ 11/ 12 1017.6R
$$




USA.gov is the U.S. government's official web portal to all federal, state and local government web resources and services.